Powrót do katalogu

COSMOS 1275 DEB

AktywnyPO
NORAD 39954·DEBRIS·🇷🇺 Russia

Wystrzelony Jun 4, 1981 z Plesetsk Cosmodrome

Loading…

Następne Przeloty (najbliższe 24 godziny)

TLE

ŚwieżeSource: Space-Track

Epoka: Sep 13, 2026, 18:39 UTC

1 39954U 81053NQ  26256.77753941  .00004554  00000-0  13258-2 0  9990
2 39954  82.8904  16.0033 0037025 342.8013  17.1924 14.43674047635956

Śledź COSMOS 1275 DEB w czasie rzeczywistym z AllMySat

Download on the App Store